sat.trackr.live / text

‹ back to catalog

QIANFAN-196

NORAD 69414 · 2026-125P

PAYLOAD ACTIVE UNKNOWN

§ Identity

Operator
Country
PRC
Launch date
2026-06-05
Launch site
WSC
Launch vehicle
Mass (kg)
RCS (m²)

External: N2YO · Heavens-Above · Gunter

§ Orbital elements

Epoch: 2026-09-20T03:30:31.775040Z

Period
106.58 min
Inclination
88.9905°
Eccentricity
0.0001867
Mean motion
13.51035251 rev/d
Perigee alt
1,067.1 km
Apogee alt
1,069.8 km
Semi-major
7,446.6 km
B*
9.2246e-6
RAAN
270.3346°
Arg perigee
93.6421°
Mean anomaly
266.4944°
Rev number
1,478

§ Raw data

QIANFAN-1961 69414U 26125P   26263.14620110  .00000018  00000+0  92246-5 0  99902 69414  88.9905 270.3346 0001867  93.6421 266.4944 13.51035251 14788

JSON: /api/v1/satellites/69414 · /tle

For live sub-satellite position, see the globe view (requires WebGL).

§ Visibility from observer

Set your observer location to see the next 7 days of passes ≥ 10°. The values pass through the URL so the page stays shareable.

No JS? Fill the form by hand. The geolocation button needs JavaScript.